Regional Weather Roundup
Issued by NWS

Home | Current Version | Previous Version | Graphics & Text | Print | Product List | Glossary On
Versions: 1 2 3 4 5 6 7 8 9 10 11 12 13 14 15 16 17 18 19 20 21 22 23 24 25 26 27 28 29 30 31 32 33 34 35 36 37 38 39 40 41 42 43 44 45 46 47 48 49 50
000
ASUS43 KLMK 282010
RWRKY
KENTUCKY REGIONAL WEATHER ROUNDUP
NATIONAL WEATHER SERVICE LOUISVILLE KY
400 PM EDT TUE JUL 28 2015

NOTE "FAIR" INDICATES FEW OR NO CLOUDS BELOW 12,000 FEET
WITH NO SIGNIFICANT WEATHER AND/OR OBSTRUCTIONS TO VISIBILITY.

KYZ001>023-026-027-061>063-070>075-282100-
WESTERN AND SOUTH CENTRAL KENTUCKY

CITY           SKY/WX    TMP DP  RH WIND       PRES   REMARKS
PADUCAH        SUNNY     94  77  57 W8        29.95F HX 108
HENDERSON      SUNNY     93  79  62 CALM      29.93F HX 110
OWENSBORO      MOSUNNY   91  79  68 CALM      29.95F HX 107
HOPKINSVILLE   MOSUNNY   92  77  61 W10       29.96F HX 105
BOWLING GREEN  TSTM      78  71  79 NW3       30.01R
GLASGOW        CLOUDY   N/A N/A N/A SW8       29.99R
$$

KYZ024-025-028>034-038-045-046-053-282100-
NORTH CENTRAL KENTUCKY

CITY           SKY/WX    TMP DP  RH WIND       PRES   REMARKS
LOUISVILLE/SDF PTSUNNY   93  73  52 W13       29.94S HX 102
LOUISVILLE/LOU MOSUNNY   92  71  50 NW7       29.95S HX  98
FORT KNOX      MOSUNNY   89  76  65 VRB2      29.95S HX 101
$$

KYZ035>037-039>044-047>052-055>060-089>105-282100-
NORTHEAST KENTUCKY

CITY           SKY/WX    TMP DP  RH WIND       PRES   REMARKS
LEXINGTON      MOSUNNY   84  70  62 E7        29.98F
COVINGTON      PTSUNNY   90  70  51 N7        29.98S HX  95
FRANKFORT      PTSUNNY   91  73  55 NW7       29.96S HX  99
$$

KYZ054-064>069-076>088-106>120-282100-
SOUTHEAST KENTUCKY

CITY           SKY/WX    TMP DP  RH WIND       PRES   REMARKS
JACKSON        CLOUDY    85  74  69 VRB5      30.01F HX  92
LONDON         TSTM      80  70  71 VRB3      30.02R
SOMERSET       MOSUNNY   90  72  55 NW9       29.98F HX  96
MIDDLESBORO    PTSUNNY   87  74  66 E3        29.99F HX  95
MONTICELLO     PTCLDY    91  78  65 CALM      30.01F HX 105
$$



USA.gov is the U.S. government's official web portal to all federal, state and local government web resources and services.